Mackinac Island, MI

8:53 AM EDT on July 21, 2017 (GMT -0400)
Mackinac Island

Weather History for KMCD - August, 2013

Change the Weather History Date:

Tuesday, August 13, 2013

  Actual Average Record
Temperature  
Mean Temperature 54 °F -  
Max Temperature 60 °F 70 °F 84 °F (2010)
Min Temperature 49 °F 57 °F 46 °F (1992)
Degree Days  
Heating Degree Days 10    
Growing Degree Days 4 (Base 50)    
Moisture  
Dew Point 47 °F    
Average Humidity 78    
Maximum Humidity 92    
Minimum Humidity 54    
Precipitation  
Precipitation 0.00 in - - ()
Sea Level Pressure  
Sea Level Pressure 30.02 in    
Wind  
Wind Speed 10 mph (NNW)    
Max Wind Speed 16 mph    
Max Gust Speed 26 mph    
Visibility 10 miles    
Events      
Averages and records for this station are not official NWS values.
T = Trace of Precipitation, MM = Missing Value Source: NWS Daily Summary

Daily Weather History Graph

Daily Weather History Graph

Search for Another Location

Airport or City:

Trip Planner

Search our weather history database for the weather conditions in past years. The results will help you decide how hot, cold, wet, or windy it might be!

Date:

Astronomy

Aug. 13, 2013 Rise Set
Actual Time 6:36 AM EDT 8:49 PM EDT
Civil Twilight 6:03 AM EDT 9:22 PM EDT
Nautical Twilight 5:22 AM EDT 10:02 PM EDT
Astronomical Twilight 4:37 AM EDT 10:47 PM EDT
Moon 1:55 PM EDT (8/13) 11:58 PM EDT (8/13)
Length of Visible Light 15h 18m
Length of Day
14h 13m
Waxing Crescent, 41% of the Moon is Illuminated
Aug 13
Waxing Crescent
Aug 14
First Quarter
Aug 20
Full
Aug 28
Last Quarter
Sep 5
New

Hourly Weather History & Observations

Time (EDT) Temp. Dew Point Humidity Pressure Visibility Wind Dir Wind Speed Gust Speed Precip Events Conditions
12:16 AM 54.3 °F 50.9 °F 88% 29.93 in 10.0 mi NNW 10.4 mph 16.1 mph N/A   Mostly Cloudy
12:35 AM 54.0 °F 50.2 °F 87% 29.94 in 10.0 mi NNW 12.7 mph 18.4 mph N/A   Mostly Cloudy
12:56 AM 54.5 °F 49.6 °F 84% 29.94 in 10.0 mi NNW 10.4 mph 20.7 mph N/A   Overcast
1:16 AM 54.0 °F 49.1 °F 84% 29.95 in 10.0 mi NNW 8.1 mph 16.1 mph N/A   Overcast
1:36 AM 53.6 °F 48.9 °F 84% 29.94 in 10.0 mi NNW 11.5 mph 16.1 mph N/A   Overcast
1:56 AM 52.7 °F 48.6 °F 86% 29.94 in 10.0 mi NNW 11.5 mph 16.1 mph N/A   Scattered Clouds
2:16 AM 52.5 °F 47.7 °F 84% 29.95 in 10.0 mi NNW 10.4 mph 17.3 mph N/A   Clear
2:36 AM 52.2 °F 47.3 °F 83% 29.94 in 10.0 mi NNW 10.4 mph 18.4 mph N/A   Scattered Clouds
2:56 AM 51.8 °F 46.9 °F 83% 29.95 in 10.0 mi NW 8.1 mph - N/A   Scattered Clouds
3:16 AM 50.5 °F 48.2 °F 92% 29.95 in 10.0 mi NW 8.1 mph - N/A   Clear
3:36 AM 50.5 °F 48.2 °F 92% 29.95 in 10.0 mi NW 8.1 mph - N/A   Clear
3:56 AM 50.4 °F 48.2 °F 92% 29.95 in 10.0 mi NW 8.1 mph - N/A   Clear
4:15 AM 50.2 °F 47.5 °F 90% 29.96 in 10.0 mi NNW 9.2 mph 16.1 mph N/A   Clear
4:36 AM 50.2 °F 46.6 °F 87% 29.96 in 10.0 mi NNW 9.2 mph 18.4 mph N/A   Clear
4:56 AM 50.0 °F 46.4 °F 87% 29.97 in 10.0 mi NNW 10.4 mph 18.4 mph N/A   Clear
5:15 AM 49.1 °F 46.4 °F 90% 29.97 in 10.0 mi NW 8.1 mph - N/A   Clear
5:36 AM 49.1 °F 46.0 °F 89% 29.97 in 10.0 mi NNW 10.4 mph - N/A   Clear
5:56 AM 49.5 °F 46.4 °F 89% 29.98 in 10.0 mi NW 6.9 mph - N/A   Clear
6:15 AM 49.5 °F 46.6 °F 90% 29.98 in 10.0 mi NW 10.4 mph - N/A   Clear
6:36 AM 49.5 °F 46.6 °F 90% 29.98 in 10.0 mi NW 9.2 mph - N/A   Scattered Clouds
6:56 AM 49.8 °F 47.1 °F 90% 29.98 in 10.0 mi NW 8.1 mph - N/A   Clear
7:15 AM 50.2 °F 47.3 °F 90% 29.99 in 10.0 mi NW 9.2 mph - N/A   Clear
7:36 AM 51.4 °F 47.3 °F 86% 29.99 in 10.0 mi NW 9.2 mph 16.1 mph N/A   Mostly Cloudy
7:56 AM 52.7 °F 48.2 °F 85% 29.99 in 10.0 mi NNW 10.4 mph 16.1 mph N/A   Overcast
8:16 AM 53.1 °F 48.2 °F 84% 30.00 in 10.0 mi NW 11.5 mph - N/A   Mostly Cloudy
8:36 AM 52.9 °F 48.2 °F 84% 30.00 in 10.0 mi NW 9.2 mph 16.1 mph N/A   Scattered Clouds
8:56 AM 54.1 °F 48.4 °F 81% 30.00 in 10.0 mi NW 10.4 mph - N/A   Mostly Cloudy
9:16 AM 53.8 °F 48.6 °F 82% 30.00 in 10.0 mi NW 9.2 mph - N/A   Mostly Cloudy
9:36 AM 53.4 °F 48.4 °F 83% 30.00 in 10.0 mi NW 6.9 mph - N/A   Overcast
9:56 AM 54.1 °F 48.4 °F 81% 30.01 in 10.0 mi NNW 5.8 mph - N/A   Overcast
10:16 AM 54.7 °F 49.1 °F 81% 30.01 in 10.0 mi NW 4.6 mph - N/A   Overcast
10:36 AM 55.6 °F 48.9 °F 78% 30.01 in 10.0 mi NW 6.9 mph - N/A   Overcast
10:56 AM 56.3 °F 48.7 °F 76% 30.02 in 10.0 mi NNW 6.9 mph - N/A   Overcast
11:16 AM 57.4 °F 48.4 °F 72% 30.02 in 10.0 mi North 8.1 mph - N/A   Mostly Cloudy
11:36 AM 57.9 °F 46.4 °F 65% 30.02 in 10.0 mi North 10.4 mph 16.1 mph N/A   Overcast
11:55 AM 59.0 °F 46.9 °F 64% 30.02 in 10.0 mi North 9.2 mph - N/A   Mostly Cloudy
12:16 PM 60.8 °F 45.5 °F 57% 30.02 in 10.0 mi North 13.8 mph 17.3 mph N/A   Mostly Cloudy
12:36 PM 57.0 °F 46.4 °F 68% 30.02 in 10.0 mi NNW 10.4 mph 16.1 mph N/A   Overcast
12:55 PM 57.9 °F 47.1 °F 67% 30.02 in 10.0 mi NNW 10.4 mph - N/A   Overcast
1:16 PM 55.9 °F 46.6 °F 71% 30.02 in 10.0 mi NNW 12.7 mph 21.9 mph N/A   Overcast
1:36 PM 59.7 °F 44.4 °F 57% 30.02 in 10.0 mi NNW 13.8 mph 20.7 mph N/A   Scattered Clouds
1:55 PM 59.9 °F 43.0 °F 54% 30.02 in 10.0 mi NNW 16.1 mph 26.5 mph N/A   Mostly Cloudy
2:16 PM 58.6 °F 43.2 °F 56% 30.02 in 10.0 mi NNW 12.7 mph 23.0 mph N/A   Overcast
2:36 PM 56.8 °F 43.0 °F 60% 30.03 in 10.0 mi NW 16.1 mph 25.3 mph N/A   Overcast
2:55 PM 57.9 °F 43.7 °F 59% 30.03 in 10.0 mi NNW 10.4 mph 23.0 mph N/A   Overcast
3:16 PM 57.9 °F 44.2 °F 60% 30.04 in 10.0 mi NNW 15.0 mph 23.0 mph N/A   Overcast
3:36 PM 57.4 °F 45.7 °F 65% 30.03 in 10.0 mi NNW 11.5 mph 23.0 mph N/A   Overcast
3:56 PM 58.5 °F 46.4 °F 64% 30.04 in 10.0 mi NNW 10.4 mph 17.3 mph N/A   Overcast
4:16 PM 56.7 °F 46.8 °F 69% 30.04 in 10.0 mi North 10.4 mph 17.3 mph N/A   Overcast
4:36 PM 57.6 °F 46.6 °F 67% 30.05 in 10.0 mi North 15.0 mph 19.6 mph N/A   Overcast
4:56 PM 57.0 °F 46.8 °F 69% 30.05 in 10.0 mi North 12.7 mph 20.7 mph N/A   Overcast
5:16 PM 57.2 °F 47.1 °F 69% 30.05 in 10.0 mi NNW 12.7 mph 17.3 mph N/A   Overcast
5:36 PM 56.5 °F 46.9 °F 70% 30.05 in 10.0 mi North 10.4 mph 17.3 mph N/A   Overcast
5:56 PM 57.2 °F 47.1 °F 69% 30.05 in 10.0 mi North 10.4 mph 16.1 mph N/A   Overcast
6:16 PM 56.3 °F 46.9 °F 71% 30.06 in 10.0 mi North 11.5 mph 18.4 mph N/A   Overcast
6:35 PM 56.5 °F 47.8 °F 73% 30.06 in 10.0 mi NNW 11.5 mph 20.7 mph N/A   Overcast
6:56 PM 56.3 °F 47.7 °F 73% 30.06 in 10.0 mi North 9.2 mph - N/A   Overcast
7:16 PM 57.6 °F 48.2 °F 71% 30.06 in 10.0 mi NNW 8.1 mph - N/A   Overcast
7:35 PM 57.0 °F 47.7 °F 71% 30.06 in 10.0 mi North 3.5 mph - N/A   Mostly Cloudy
7:56 PM 56.7 °F 47.7 °F 72% 30.07 in 10.0 mi NNW 8.1 mph - N/A   Mostly Cloudy
8:16 PM 55.4 °F 47.7 °F 75% 30.07 in 10.0 mi NNW 8.1 mph - N/A   Scattered Clouds
8:35 PM 55.4 °F 48.2 °F 77% 30.07 in 10.0 mi NW 9.2 mph - N/A   Mostly Cloudy
8:56 PM 55.6 °F 48.4 °F 77% 30.07 in 10.0 mi NW 9.2 mph - N/A   Overcast
9:16 PM 55.8 °F 48.6 °F 77% 30.07 in 10.0 mi NW 9.2 mph 17.3 mph N/A   Overcast
9:35 PM 55.2 °F 48.2 °F 77% 30.08 in 10.0 mi NW 9.2 mph - N/A   Mostly Cloudy
9:56 PM 54.5 °F 48.4 °F 80% 30.09 in 10.0 mi NW 6.9 mph - N/A   Scattered Clouds
10:16 PM 53.6 °F 48.4 °F 82% 30.09 in 10.0 mi NW 6.9 mph - N/A   Clear
10:36 PM 53.6 °F 49.1 °F 85% 30.09 in 10.0 mi NW 10.4 mph - N/A   Mostly Cloudy
10:56 PM 53.4 °F 49.3 °F 86% 30.09 in 10.0 mi NW 8.1 mph - N/A   Overcast
11:16 PM 53.6 °F 49.6 °F 86% 30.09 in 10.0 mi NNW 8.1 mph - N/A   Overcast
11:36 PM 53.2 °F 49.3 °F 86% 30.10 in 10.0 mi NW 9.2 mph - N/A   Overcast
11:56 PM 52.7 °F 49.5 °F 89% 30.10 in 10.0 mi NW 6.9 mph - N/A   Scattered Clouds